Terug naar catalogus

STARLINK-6350

ActiefCommunicatieVLEO
NORAD 57226·PAYLOAD·🇺🇸 United States

Gelanceerd Jul 7, 2023 vanaf Vandenberg Space Force Base

Loading…

Volgende Passages (komende 24 uur)

TLE

VersSource: CelesTrak SupGP

Epoch: Sep 15, 2026, 03:03 UTC

1 57226C 23094J   26258.12756944 -.00049725  00000+0 -18010-2 0  2589
2 57226  43.0048  41.0930 0001991 272.6841 135.7440 15.27602113    13

Volg STARLINK-6350 in realtime met AllMySat

Download on the App Store